#timestamp,LO_Frequency,Hit,StdDev 
1510365615.6,286046993.6,N
1510365635.4,286046994.2,N
1510365655.2,286046993.4,N
1510365675.0,286046993.7,N
1510365676.0,286046993.7,N
1510365695.8,286046994.1,N
1510365715.6,286046994.0,N
1510365735.4,286046993.5,N
1510365755.3,286046993.3,N
1510365775.1,286046994.6,N
1510365795.8,286046993.6,N
1510365815.7,286046992.3,N
1510365835.5,286046994.0,N
1510365855.3,286046997.3,N
1510365875.2,286046995.7,N
1510365895.9,286046993.5,N
1510365915.7,286046992.2,N
1510365935.6,286046994.4,N
1510365955.4,286046997.6,N
1510365975.2,286046995.0,N
1510365995.0,286046996.2,N
1510365996.0,286046996.2,N
1510366015.8,286046992.2,Y
1510366035.6,286046998.0,P
1510366055.5,286046999.9,N
1510366075.3,286047000.7,N
1510366095.1,286047000.3,N
1510366115.8,286047002.3,N
1510366135.7,286047003.3,N
1510366155.5,286047009.1,Y
1510366175.3,286047008.4,P
1510366195.2,286047006.7,N
1510366215.0,286047008.8,N
1510366215.9,286047008.8,N
1510366235.7,286047008.3,N
1510366255.6,286047008.5,N
1510366275.4,286047007.1,N
1510366295.2,286047007.3,N
1510366315.1,286047007.6,N
1510366316.0,286047007.6,Y
1510366335.8,286047001.3,P
1510366355.6,286047005.3,N
1510366375.5,286047003.4,N
1510366395.3,286047001.5,N
1510366415.1,286047002.1,N
1510366435.9,286047004.5,N
1510366455.7,286047006.8,Y
1510366475.5,286047004.0,P
1510366495.4,286047005.6,P
1510366515.2,286047007.5,P
1510366535.0,286047005.7,Y
1510366535.9,286047005.7,P
1510366555.8,286047003.5,P
1510366575.6,286047003.6,P
1510366595.4,286047002.4,N
1510366615.3,286047002.4,N
1510366635.1,286047001.5,N
1510366636.0,286047001.5,N
1510366655.8,286046999.9,N
1510366675.7,286047002.2,N
1510366695.5,286047004.1,N
1510366715.3,286047001.2,N
1510366735.1,286046998.8,N
1510366755.9,286046998.4,N
1510366775.7,286047002.0,N
1510366795.5,286046998.4,N
1510366815.4,286046999.6,N
1510366835.2,286047000.9,N
1510366855.0,286046999.9,N
1510366855.9,286046999.9,N
1510366875.8,286046999.1,N
1510366895.6,286046996.9,N
1510366915.4,286046999.3,N
1510366935.3,286047000.9,N
1510366955.1,286047001.0,N
1510366956.0,286047001.0,N
1510366975.8,286047002.5,N
1510366995.7,286047001.9,N
1510367015.5,286047003.2,N
1510367035.3,286047005.0,N
1510367055.2,286047005.4,N
1510367075.9,286047005.5,N
1510367095.7,286047003.8,N
1510367115.5,286047001.9,N
1510367135.4,286047000.0,N
1510367155.2,286047003.2,N
1510367175.0,286047003.1,N
1510367175.9,286047003.1,N
1510367195.8,286047000.3,N
1510367215.6,286046993.4,Y
1510367235.4,286046993.2,P
1510367255.3,286046988.5,N
1510367275.1,286046988.2,N
1510367295.8,286046986.9,N
1510367315.7,286046985.7,N
1510367335.5,286046986.2,N
1510367355.3,286046983.5,Y
1510367375.2,286046990.1,P
1510367395.9,286046991.4,P
1510367415.7,286046986.9,P
1510367435.6,286046988.9,Y
1510367455.4,286046998.1,P
1510367475.2,286046994.6,N
1510367495.1,286046995.4,N
1510367496.0,286046995.4,N
1510367515.8,286046996.0,N
1510367535.6,286046995.9,N
1510367555.5,286046995.5,N
1510367575.3,286046997.4,N
1510367595.1,286046995.3,N
1510367615.9,286046999.4,N
1510367635.7,286046996.1,N
1510367655.5,286046995.6,N
1510367675.4,286046996.6,N
1510367695.2,286046996.4,N
1510367715.0,286046993.7,Y
1510367715.9,286046993.7,P
1510367735.8,286046995.9,P
1510367755.6,286046997.1,N
1510367775.4,286046998.8,N
1510367795.2,286046998.2,N
1510367815.1,286046998.4,N
1510367816.0,286046998.4,N
1510367835.8,286046997.4,N
1510367855.6,286046998.8,N
1510367875.5,286046995.5,N
1510367895.3,286046996.3,N
1510367915.1,286046996.7,N
1510367935.9,286046995.6,Y
1510367955.7,286046998.3,P
1510367975.5,286046995.3,P
1510367995.4,286046997.0,N
1510368015.2,286046997.6,N
1510368035.0,286046998.8,N
1510368035.9,286046998.8,N
1510368055.8,286046998.3,N
1510368075.6,286047003.5,Y
1510368095.4,286047009.5,P
1510368115.3,286047013.9,N
1510368135.1,286047013.1,N
1510368136.0,286047013.1,N
1510368155.8,286047014.2,N
1510368175.7,286047015.3,N
1510368195.5,286047014.1,N
1510368215.3,286047019.1,Y
1510368235.2,286047006.3,P
1510368255.9,286047006.4,N
1510368275.7,286047010.2,P
1510368295.6,286047009.0,Y
1510368315.4,286046999.3,P
1510368335.2,286047000.5,N
1510368355.1,286047004.1,N
1510368356.0,286047004.1,N
1510368375.8,286047005.4,N
1510368395.6,286047005.9,N
1510368415.5,286047006.3,N
1510368435.3,286047005.3,N
1510368455.1,286047005.2,N
1510368475.8,286047007.4,N
1510368495.7,286047008.3,Y
1510368515.5,286047003.7,P
1510368535.3,286047000.6,N
1510368555.2,286047001.0,N
1510368575.0,286046997.3,N
1510368575.9,286046997.3,N
1510368595.7,286046997.4,N
1510368615.6,286046998.2,N
1510368635.4,286047000.4,N
1510368655.2,286047002.1,N
1510368675.1,286046999.3,N
1510368676.0,286046999.3,N
1510368695.8,286047000.1,N
1510368715.6,286047002.0,N
1510368735.5,286047005.2,N
1510368755.3,286047007.1,N
1510368775.1,286047002.9,N
1510368795.9,286047001.8,N
1510368815.7,286047003.9,N
1510368835.5,286047003.7,N
1510368855.4,286047008.8,Y
1510368875.2,286047005.7,P
1510368895.0,286047004.7,N
1510368895.9,286047004.7,N
1510368915.8,286047003.2,N
1510368935.6,286047005.4,Y
1510368955.4,286047000.5,P
1510368975.3,286046999.7,N
1510368995.1,286046998.4,N
1510368996.0,286046998.4,N
1510369015.8,286046999.1,N
1510369035.7,286046997.0,N
1510369055.5,286046997.1,N
1510369075.3,286046998.2,N
1510369095.1,286046998.1,N
1510369115.9,286047000.4,N
1510369135.7,286047000.3,N
1510369155.5,286046996.6,N
1510369175.4,286046990.5,Y
1510369195.2,286046990.1,P
